This demonstration page uses our WeatherBlox Daily Observations layout. Learn more.

Hourly Observations for September 11, 2015

Temp ( °F °C ) Dew Point ( °F °C ) Humidity (%) Winds ( mph kmh ) Pressure ( in mb ) Visibility ( mi km ) Precip ( " mm )
12:15 am 00:15 Clear 55 13 54 12 94 94 N 6 9 30.12 1020 10 16.0934 0 0
12:35 am 00:35 Clear 56 13.5 54 12.3 93 93 N 5 7 30.09 1019 10 16.0934 0 0
12:55 am 00:55 Clear 56 13.3 54 12.1 93 93 N 5 7 30.12 1020 10 16.0934 0 0
1:15 am 01:15 Clear 55 12.8 53 11.6 92 92 NW 5 7 30.12 1020 10 16.0934 0 0
1:35 am 01:35 Clear 54 12.3 53 11.5 95 95 NNW 6 9 30.12 1020 10 16.0934 0 0
1:55 am 01:55 Clear 55 13 54 12 94 94 NNW 5 7 30.12 1020 10 16.0934 0 0
2:15 am 02:15 Clear 54 12.2 52 11.2 94 94 NNW 5 7 30.15 1021 10 16.0934 0 0
2:35 am 02:35 Clear 53 11.8 52 11 95 95 NNW 5 7 30.15 1021 10 16.0934 0 0
2:55 am 02:55 Clear 53 11.7 52 10.9 95 95 NNW 6 9 30.15 1021 10 16.0934 0 0
3:15 am 03:15 Clear 52 11.1 50 10.2 94 94 N 6 9 30.18 1022 10 16.0934 0 0
3:35 am 03:35 Clear 53 11.4 51 10.5 94 94 NNW 5 7 30.18 1022 10 16.0934 0 0
3:55 am 03:55 Partly Cloudy 52 11.3 51 10.5 95 95 NNW 6 9 30.18 1022 10 16.0934 0 0
4:15 am 04:15 Partly Cloudy 53 11.5 51 10.6 94 94 NNW 6 9 30.18 1022 10 16.0934 0 0
4:35 am 04:35 Mostly Cloudy 53 11.8 51 10.8 94 94 NNW 3 6 30.18 1022 10 16.0934 0 0
4:55 am 04:55 Partly Cloudy 53 11.8 52 11 95 95 NNW 6 9 30.18 1022 10 16.0934 0 0
5:15 am 05:15 Clear 54 12.2 52 11.3 94 94 NNW 6 9 30.18 1022 10 16.0934 0 0
5:35 am 05:35 Partly Cloudy 54 12.2 52 11.3 94 94 N 6 9 30.21 1023 10 16.0934 0 0
5:55 am 05:55 Partly Cloudy 54 12 52 11 94 94 N 7 11 30.21 1023 10 16.0934 0 0
6:15 am 06:15 Clear 54 12 52 11 94 94 NNW 5 7 30.21 1023 10 16.0934 0 0
6:35 am 06:35 Clear 53 11.6 51 10.8 95 95 NNW 6 9 30.21 1023 10 16.0934 0 0
6:55 am 06:55 Clear 53 11.6 51 10.8 95 95 N 5 7 30.21 1023 10 16.0934 0 0
7:15 am 07:15 Sunny 53 11.5 51 10.6 94 94 N 7 11 30.21 1023 10 16.0934 0 0
7:35 am 07:35 Sunny 53 11.5 51 10.5 94 94 N 7 11 30.21 1023 10 16.0934 0 0
7:55 am 07:55 Sunny 53 11.5 51 10.5 94 94 N 7 11 30.24 1024 10 16.0934 0 0
8:15 am 08:15 Sunny 53 11.8 51 10.7 93 93 N 8 13 30.24 1024 10 16.0934 0 0
8:35 am 08:35 Sunny 54 12.2 52 11 92 92 NNE 7 11 30.24 1024 10 16.0934 0 0
8:55 am 08:55 Sunny 55 12.7 53 11.5 92 92 NNE 13 20 30.24 1024 10 16.0934 0 0
9:15 am 09:15 Sunny 56 13.2 53 11.6 90 90 NNE 10 17 30.24 1024 10 16.0934 0 0
9:35 am 09:35 Sunny 56 13.6 53 11.5 87 87 NE 10 17 30.24 1024 10 16.0934 0 0
9:55 am 09:55 Sunny 58 14.4 53 11.6 83 83 NE 10 17 30.24 1024 10 16.0934 0 0
10:15 am 10:15 Sunny 59 15.1 53 11.5 79 79 NE 8 13 30.21 1023 10 16.0934 0 0
10:35 am 10:35 Sunny 60 15.7 53 11.4 76 76 NE 6 9 30.24 1024 10 16.0934 0 0
10:55 am 10:55 Sunny 61 16.2 52 11.2 72 72 ENE 6 9 30.24 1024 10 16.0934 0 0
11:15 am 11:15 Sunny 62 16.9 52 11.3 70 70 NE 6 9 30.24 1024 10 16.0934 0 0
11:35 am 11:35 Partly Cloudy 63 17.4 53 11.6 69 69 ENE 6 9 30.24 1024 10 16.0934 0 0
11:55 am 11:55 Partly Cloudy 64 17.7 53 11.4 67 67 NE 7 11 30.24 1024 10 16.0934 0 0
12:15 pm 12:15 Partly Cloudy 65 18.3 52 11.1 63 63 N 5 7 30.24 1024 10 16.0934 0 0
12:35 pm 12:35 Partly Cloudy 66 19 52 11.3 61 61 Calm 30.21 1023 10 16.0934 0 0
12:55 pm 12:55 Partly Cloudy 68 19.9 52 10.9 56 56 NNE 7 11 30.18 1022 10 16.0934 0 0
1:15 pm 13:15 Partly Cloudy 67 19.3 51 10.4 57 57 ENE 3 6 30.18 1022 10 16.0934 0 0
1:35 pm 13:35 Mostly Cloudy 68 20 51 10.6 55 55 NNE 10 17 30.18 1022 10 16.0934 0 0
1:55 pm 13:55 Partly Cloudy 69 20.6 51 10.3 52 52 E 6 9 30.18 1022 10 16.0934 0 0
2:15 pm 14:15 Partly Cloudy 69 20.8 49 9.5 49 49 N 5 7 30.18 1022 10 16.0934 0 0
2:35 pm 14:35 Partly Cloudy 69 20.8 48 9.1 47 47 NE 7 11 30.15 1021 10 16.0934 0 0
2:55 pm 14:55 Partly Cloudy 70 21.2 49 9.2 46 46 NNW 6 9 30.15 1021 10 16.0934 0 0
3:15 pm 15:15 Partly Cloudy 69 20.5 48 9 48 48 NE 5 7 30.15 1021 10 16.0934 0 0
3:35 pm 15:35 Mostly Cloudy 69 20.7 47 8.3 45 45 Calm 30.15 1021 10 16.0934 0 0
3:55 pm 15:55 Partly Cloudy 70 20.9 47 8.3 44 44 N 3 6 30.12 1020 10 16.0934 0 0
4:15 pm 16:15 Partly Cloudy 71 21.6 46 8 42 42 N 6 9 30.09 1019 10 16.0934 0 0
4:35 pm 16:35 Mostly Cloudy 70 21 48 8.8 46 46 NNE 5 7 30.12 1020 10 16.0934 0 0
4:55 pm 16:55 Partly Cloudy 71 21.5 47 8.3 43 43 NE 3 6 30.09 1019 10 16.0934 0 0
5:15 pm 17:15 Partly Cloudy 71 21.4 47 8.1 43 43 NNE 6 9 30.06 1018 10 16.0934 0 0
5:35 pm 17:35 Partly Cloudy 71 21.6 47 8.4 43 43 ENE 8 13 30.06 1018 10 16.0934 0 0
5:55 pm 17:55 Partly Cloudy 71 21.4 47 8.5 44 44 NE 8 13 30.06 1018 10 16.0934 0 0
6:15 pm 18:15 Mostly Cloudy 70 21 47 8.6 45 45 ENE 6 9 30.06 1018 10 16.0934 0 0
6:35 pm 18:35 Cloudy 69 20.7 47 8.5 46 46 ENE 5 7 30.06 1018 10 16.0934 0 0
6:55 pm 18:55 Cloudy 68 20.1 49 9.6 51 51 E 6 9 30.09 1019 10 16.0934 0 0
7:15 pm 19:15 Mostly Cloudy 66 19 50 10 56 56 E 5 7 30.09 1019 10 16.0934 0 0
7:35 pm 19:35 Cloudy 66 18.8 51 10.7 60 60 E 5 7 30.09 1019 10 16.0934 0 0
7:55 pm 19:55 Cloudy 65 18.5 52 10.9 61 61 E 5 7 30.09 1019 10 16.0934 0 0
8:15 pm 20:15 Cloudy 64 17.8 51 10.8 64 64 E 6 9 30.09 1019 10 16.0934 0 0
8:35 pm 20:35 Mostly Cloudy 62 16.6 52 11.2 71 71 ESE 6 9 30.12 1020 10 16.0934 0 0
8:55 pm 20:55 Partly Cloudy 60 15.6 53 11.4 76 76 E 6 9 30.12 1020 10 16.0934 0 0
9:15 pm 21:15 Partly Cloudy 58 14.5 52 10.9 79 79 E 7 11 30.15 1021 10 16.0934 0 0
9:35 pm 21:35 Partly Cloudy 57 13.7 51 10.5 81 81 ESE 6 9 30.18 1022 10 16.0934 0 0
9:55 pm 21:55 Partly Cloudy 57 14 51 10.7 81 81 SE 5 7 30.18 1022 10 16.0934 0 0
10:15 pm 22:15 Clear 55 13 51 10.6 85 85 ESE 6 9 30.18 1022 10 16.0934 0 0
10:35 pm 22:35 Clear 56 13.5 51 10.4 82 82 SSE 6 9 30.18 1022 10 16.0934 0 0
10:55 pm 22:55 Clear 56 13.2 50 9.8 80 80 ESE 5 7 30.18 1022 10 16.0934 0 0
11:15 pm 23:15 Clear 55 12.9 49 9.7 81 81 SE 6 9 30.18 1022 10 16.0934 0 0
11:35 pm 23:35 Clear 55 12.7 49 9.5 81 81 SE 6 9 30.18 1022 10 16.0934 0 0
11:55 pm 23:55 Partly Cloudy 55 12.6 49 9.3 80 80 SSE 6 9 30.18 1022 10 16.0934 0 0

Powered by AerisWeather